Location: D�derode
(51.8092°N, 10.1065°E)
Time: 21:15:25
(UTC+00:00)

Cosmos 1151 Rocket - Pass Details

Date: 01 December 2020
Orbit: 593 x 615 km, 82.5° (Epoch: 24 January)

Event Time Altitude Azimuth Distance (km) Brightness Sun altitude
Rises 17:07:25 0° 196° (SSW) 2,832 6.9 -16.9°
Reaches altitude 10° 17:09:38 10° 199° (SSW) 1,932 6.0 -17.2°
Maximum altitude 17:13:52 67° 282° (WNW) 649 3.3 -17.8°
Drops below altitude 10° 17:18:09 10° 6° (N) 1,941 5.4 -18.5°
Enters shadow 17:18:49 - 7° (N) 2,213 5.7 -18.6°
